Tracking 27380 objects as of 6-Jun-2023
HD Live streaming from Space Station
objects crossing your sky now

ONEWEB-0316

Track ONEWEB-0316 now!
10-day predictions
ONEWEB-0316 is classified as:


NORAD ID: 49102
Int'l Code: 2021-075AD
Perigee: 1,195.1 km
Apogee: 1,198.6 km
Inclination: 87.9 °
Period: 109.2 minutes
Semi major axis: 7567 km
RCS: Unknown
Launch date: August 21, 2021
Source: United Kingdom (UK)
Launch site: TYURATAM MISSILE AND SPACE COMPLEX (TTMTR)
Your satellite tracking list
Your tracking list is empty




NASA's NSSDC Master Catalog

Two Line Element Set (TLE):
1 49102U 21075AD  23156.51379575  .00000056  00000-0  10850-3 0  9998
2 49102  87.9262 195.6666 0002295 102.6404 257.4985 13.18687045 91223
Source of the keplerian elements: AFSPC